#Datum;Uhrzeit;WR;Pac;DaySum;Status;WR;Pac;DaySum;Status;Pdc1;Udc;Temp;WR;Pac;DaySum;Status;Pdc1;Udc;Temp;WR;Pac;DaySum;Status;Pdc1;Udc;Temp;WR;Pac;DaySum;Status;Pdc1;Pdc2;Udc1;Udc2;Temp;WR;Pac;DaySum;Status;Pdc1;Pdc2;Udc1;Udc2;Temp;WR;Pac;DaySum;Status;Pdc1;Udc;Temp;WR;Pac;DaySum;Status;Pdc1;Udc;Temp;WR;Pac;DaySum;Status;Pdc1;Udc;Temp
01.11.21;23:55:00;1;357;9737;0;2;0;4893;0;0;0;0;3;0;3158;0;0;0;0;4;0;4424;0;0;0;0;5;0;13477;0;0;0;0;0;0;6;0;10133;0;0;0;0;0;0;7;0;6779;0;0;0;0;8;0;6729;0;0;0;0;9;0;3620;0;0;0;0
01.11.21;23:50:00;1;342;9709;0;2;0;4893;0;0;0;0;3;0;3158;0;0;0;0;4;0;4424;0;0;0;0;5;0;13477;0;0;0;0;0;0;6;0;10133;0;0;0;0;0;0;7;0;6779;0;0;0;0;8;0;6729;0;0;0;0;9;0;3620;0;0;0;0
01.11.21;23:45:00;1;360;9680;0;2;0;4893;0;0;0;0;3;0;3158;0;0;0;0;4;0;4424;0;0;0;0;5;0;13477;0;0;0;0;0;0;6;0;10133;0;0;0;0;0;0;7;0;6779;0;0;0;0;8;0;6729;0;0;0;0;9;0;3620;0;0;0;0
01.11.21;23:40:00;1;340;9650;0;2;0;4893;0;0;0;0;3;0;3158;0;0;0;0;4;0;4424;0;0;0;0;5;0;13477;0;0;0;0;0;0;6;0;10133;0;0;0;0;0;0;7;0;6779;0;0;0;0;8;0;6729;0;0;0;0;9;0;3620;0;0;0;0
01.11.21;23:35:00;1;312;9621;0;2;0;4893;0;0;0;0;3;0;3158;0;0;0;0;4;0;4424;0;0;0;0;5;0;13477;0;0;0;0;0;0;6;0;10133;0;0;0;0;0;0;7;0;6779;0;0;0;0;8;0;6729;0;0;0;0;9;0;3620;0;0;0;0
01.11.21;23:30:00;1;310;9595;0;2;0;4893;0;0;0;0;3;0;3158;0;0;0;0;4;0;4424;0;0;0;0;5;0;13477;0;0;0;0;0;0;6;0;10133;0;0;0;0;0;0;7;0;6779;0;0;0;0;8;0;6729;0;0;0;0;9;0;3620;0;0;0;0
01.11.21;23:25:00;1;290;9569;0;2;0;4893;0;0;0;0;3;0;3158;0;0;0;0;4;0;4424;0;0;0;0;5;0;13477;0;0;0;0;0;0;6;0;10133;0;0;0;0;0;0;7;0;6779;0;0;0;0;8;0;6729;0;0;0;0;9;0;3620;0;0;0;0
01.11.21;23:20:00;1;267;9546;0;2;0;4893;0;0;0;0;3;0;3158;0;0;0;0;4;0;4424;0;0;0;0;5;0;13477;0;0;0;0;0;0;6;0;10133;0;0;0;0;0;0;7;0;6779;0;0;0;0;8;0;6729;0;0;0;0;9;0;3620;0;0;0;0
01.11.21;23:15:00;1;285;9523;0;2;0;4893;0;0;0;0;3;0;3158;0;0;0;0;4;0;4424;0;0;0;0;5;0;13477;0;0;0;0;0;0;6;0;10133;0;0;0;0;0;0;7;0;6779;0;0;0;0;8;0;6729;0;0;0;0;9;0;3620;0;0;0;0
01.11.21;23:10:00;1;334;9499;0;2;0;4893;0;0;0;0;3;0;3158;0;0;0;0;4;0;4424;0;0;0;0;5;0;13477;0;0;0;0;0;0;6;0;10133;0;0;0;0;0;0;7;0;6779;0;0;0;0;8;0;6729;0;0;0;0;9;0;3620;0;0;0;0
01.11.21;23:05:00;1;334;9471;0;2;0;4893;0;0;0;0;3;0;3158;0;0;0;0;4;0;4424;0;0;0;0;5;0;13477;0;0;0;0;0;0;6;0;10133;0;0;0;0;0;0;7;0;6779;0;0;0;0;8;0;6729;0;0;0;0;9;0;3620;0;0;0;0
01.11.21;23:00:00;1;355;9443;0;2;0;4893;0;0;0;0;3;0;3158;0;0;0;0;4;0;4424;0;0;0;0;5;0;13477;0;0;0;0;0;0;6;0;10133;0;0;0;0;0;0;7;0;6779;0;0;0;0;8;0;6729;0;0;0;0;9;0;3620;0;0;0;0
01.11.21;22:55:00;1;355;9414;0;2;0;4893;0;0;0;0;3;0;3158;0;0;0;0;4;0;4424;0;0;0;0;5;0;13477;2;0;0;0;0;0;6;0;10133;2;0;0;0;0;0;7;0;6779;0;0;0;0;8;0;6729;0;0;0;0;9;0;3620;0;0;0;0
01.11.21;22:50:00;1;348;9384;0;2;0;4893;0;0;0;0;3;0;3158;0;0;0;0;4;0;4424;0;0;0;0;5;0;13477;2;0;0;0;0;0;6;0;10133;2;0;0;0;0;0;7;0;6779;0;0;0;0;8;0;6729;0;0;0;0;9;0;3620;0;0;0;0
01.11.21;22:45:00;1;335;9355;0;2;0;4893;0;0;0;0;3;0;3158;0;0;0;0;4;0;4424;0;0;0;0;5;0;13477;2;0;0;0;0;0;6;0;10133;2;0;0;0;0;0;7;0;6779;0;0;0;0;8;0;6729;0;0;0;0;9;0;3620;0;0;0;0
01.11.21;22:40:00;1;335;9327;0;2;0;4893;0;0;0;0;3;0;3158;0;0;0;0;4;0;4424;0;0;0;0;5;0;13477;2;0;0;0;0;0;6;0;10133;2;0;0;0;0;0;7;0;6779;0;0;0;0;8;0;6729;0;0;0;0;9;0;3620;0;0;0;0
01.11.21;22:35:00;1;392;9299;0;2;0;4893;0;0;0;0;3;0;3158;0;0;0;0;4;0;4424;0;0;0;0;5;0;13477;2;0;0;0;0;0;6;0;10133;2;0;0;0;0;0;7;0;6779;0;0;0;0;8;0;6729;0;0;0;0;9;0;3620;0;0;0;0
01.11.21;22:30:00;1;325;9267;0;2;0;4893;0;0;0;0;3;0;3158;0;0;0;0;4;0;4424;0;0;0;0;5;0;13477;2;0;0;0;0;0;6;0;10133;2;0;0;0;0;0;7;0;6779;0;0;0;0;8;0;6729;0;0;0;0;9;0;3620;0;0;0;0
01.11.21;22:25:00;1;341;9240;0;2;0;4893;0;0;0;0;3;0;3158;0;0;0;0;4;0;4424;0;0;0;0;5;0;13477;2;0;0;0;0;0;6;0;10133;2;0;0;0;0;0;7;0;6779;0;0;0;0;8;0;6729;0;0;0;0;9;0;3620;0;0;0;0
01.11.21;22:20:00;1;346;9212;0;2;0;4893;0;0;0;0;3;0;3158;0;0;0;0;4;0;4424;0;0;0;0;5;0;13477;2;0;0;0;0;0;6;0;10133;2;0;0;0;0;0;7;0;6779;0;0;0;0;8;0;6729;0;0;0;0;9;0;3620;0;0;0;0
01.11.21;22:15:00;1;439;9182;0;2;0;4893;0;0;0;0;3;0;3158;0;0;0;0;4;0;4424;0;0;0;0;5;0;13477;2;0;0;0;0;0;6;0;10133;2;0;0;0;0;0;7;0;6779;0;0;0;0;8;0;6729;0;0;0;0;9;0;3620;0;0;0;0
01.11.21;22:10:00;1;465;9145;0;2;0;4893;0;0;0;0;3;0;3158;0;0;0;0;4;0;4424;0;0;0;0;5;0;13477;2;0;0;0;0;0;6;0;10133;2;0;0;0;0;0;7;0;6779;0;0;0;0;8;0;6729;0;0;0;0;9;0;3620;0;0;0;0
01.11.21;22:05:00;1;477;9107;0;2;0;4893;0;0;0;0;3;0;3158;0;0;0;0;4;0;4424;0;0;0;0;5;0;13477;2;0;0;0;0;0;6;0;10133;2;0;0;0;0;0;7;0;6779;0;0;0;0;8;0;6729;0;0;0;0;9;0;3620;0;0;0;0
01.11.21;22:00:00;1;439;9066;0;2;0;4893;0;0;0;0;3;0;3158;0;0;0;0;4;0;4424;0;0;0;0;5;0;13477;2;0;0;0;0;0;6;0;10133;2;0;0;0;0;0;7;0;6779;0;0;0;0;8;0;6729;0;0;0;0;9;0;3620;0;0;0;0
01.11.21;21:55:00;1;440;9030;0;2;0;4893;0;0;0;0;3;0;3158;0;0;0;0;4;0;4424;0;0;0;0;5;0;13477;2;0;0;0;0;0;6;0;10133;2;0;0;0;0;0;7;0;6779;0;0;0;0;8;0;6729;0;0;0;0;9;0;3620;0;0;0;0
01.11.21;21:50:00;1;573;8991;0;2;0;4893;0;0;0;0;3;0;3158;0;0;0;0;4;0;4424;0;0;0;0;5;0;13477;2;0;0;0;0;0;6;0;10133;2;0;0;0;0;0;7;0;6779;0;0;0;0;8;0;6729;0;0;0;0;9;0;3620;0;0;0;0
01.11.21;21:45:00;1;621;8943;0;2;0;4893;0;0;0;0;3;0;3158;0;0;0;0;4;0;4424;0;0;0;0;5;0;13477;2;0;0;0;0;0;6;0;10133;2;0;0;0;0;0;7;0;6779;0;0;0;0;8;0;6729;0;0;0;0;9;0;3620;0;0;0;0
01.11.21;21:40:00;1;560;8891;0;2;0;4893;0;0;0;0;3;0;3158;0;0;0;0;4;0;4424;0;0;0;0;5;0;13477;2;0;0;0;0;0;6;0;10133;2;0;0;0;0;0;7;0;6779;0;0;0;0;8;0;6729;0;0;0;0;9;0;3620;0;0;0;0
01.11.21;21:35:00;1;522;8845;0;2;0;4893;0;0;0;0;3;0;3158;0;0;0;0;4;0;4424;0;0;0;0;5;0;13477;2;0;0;0;0;0;6;0;10133;2;0;0;0;0;0;7;0;6779;0;0;0;0;8;0;6729;0;0;0;0;9;0;3620;0;0;0;0
01.11.21;21:30:00;1;561;8802;0;2;0;4893;0;0;0;0;3;0;3158;0;0;0;0;4;0;4424;0;0;0;0;5;0;13477;2;0;0;0;0;0;6;0;10133;2;0;0;0;0;0;7;0;6779;0;0;0;0;8;0;6729;0;0;0;0;9;0;3620;0;0;0;0
01.11.21;21:25:00;1;553;8755;0;2;0;4893;0;0;0;0;3;0;3158;0;0;0;0;4;0;4424;0;0;0;0;5;0;13477;2;0;0;0;0;0;6;0;10133;2;0;0;0;0;0;7;0;6779;0;0;0;0;8;0;6729;0;0;0;0;9;0;3620;0;0;0;0
01.11.21;21:20:00;1;1709;8709;0;2;0;4893;0;0;0;0;3;0;3158;0;0;0;0;4;0;4424;0;0;0;0;5;0;13477;2;0;0;0;0;0;6;0;10133;2;0;0;0;0;0;7;0;6779;0;0;0;0;8;0;6729;0;0;0;0;9;0;3620;0;0;0;0
01.11.21;21:15:00;1;523;8588;0;2;0;4893;0;0;0;0;3;0;3158;0;0;0;0;4;0;4424;0;0;0;0;5;0;13477;2;0;0;0;0;0;6;0;10133;2;0;0;0;0;0;7;0;6779;0;0;0;0;8;0;6729;0;0;0;0;9;0;3620;0;0;0;0
01.11.21;21:10:00;1;412;8546;0;2;0;4893;0;0;0;0;3;0;3158;0;0;0;0;4;0;4424;0;0;0;0;5;0;13477;2;0;0;0;0;0;6;0;10133;2;0;0;0;0;0;7;0;6779;0;0;0;0;8;0;6729;0;0;0;0;9;0;3620;0;0;0;0
01.11.21;21:05:00;1;413;8512;0;2;0;4893;0;0;0;0;3;0;3158;0;0;0;0;4;0;4424;0;0;0;0;5;0;13477;2;0;0;0;0;0;6;0;10133;2;0;0;0;0;0;7;0;6779;0;0;0;0;8;0;6729;0;0;0;0;9;0;3620;0;0;0;0
01.11.21;21:00:00;1;443;8477;0;2;0;4893;0;0;0;0;3;0;3158;0;0;0;0;4;0;4424;0;0;0;0;5;0;13477;2;0;0;0;0;0;6;0;10133;2;0;0;0;0;0;7;0;6779;0;0;0;0;8;0;6729;0;0;0;0;9;0;3620;0;0;0;0
01.11.21;20:55:00;1;460;8440;0;2;0;4893;0;0;0;0;3;0;3158;0;0;0;0;4;0;4424;0;0;0;0;5;0;13477;2;0;0;0;0;0;6;0;10133;2;0;0;0;0;0;7;0;6779;0;0;0;0;8;0;6729;0;0;0;0;9;0;3620;0;0;0;0
01.11.21;20:50:00;1;469;8402;0;2;0;4893;0;0;0;0;3;0;3158;0;0;0;0;4;0;4424;0;0;0;0;5;0;13477;2;0;0;0;0;0;6;0;10133;2;0;0;0;0;0;7;0;6779;0;0;0;0;8;0;6729;0;0;0;0;9;0;3620;0;0;0;0
01.11.21;20:45:00;1;485;8363;0;2;0;4893;0;0;0;0;3;0;3158;0;0;0;0;4;0;4424;0;0;0;0;5;0;13477;2;0;0;0;0;0;6;0;10133;2;0;0;0;0;0;7;0;6779;0;0;0;0;8;0;6729;0;0;0;0;9;0;3620;0;0;0;0
01.11.21;20:40:00;1;456;8322;0;2;0;4893;0;0;0;0;3;0;3158;0;0;0;0;4;0;4424;0;0;0;0;5;0;13477;2;0;0;0;0;0;6;0;10133;2;0;0;0;0;0;7;0;6779;0;0;0;0;8;0;6729;0;0;0;0;9;0;3620;0;0;0;0
01.11.21;20:35:00;1;438;8284;0;2;0;4893;0;0;0;0;3;0;3158;0;0;0;0;4;0;4424;0;0;0;0;5;0;13477;2;0;0;0;0;0;6;0;10133;2;0;0;0;0;0;7;0;6779;0;0;0;0;8;0;6729;0;0;0;0;9;0;3620;0;0;0;0
01.11.21;20:30:00;1;422;8246;0;2;0;4893;0;0;0;0;3;0;3158;0;0;0;0;4;0;4424;0;0;0;0;5;0;13477;2;0;0;0;0;0;6;0;10133;2;0;0;0;0;0;7;0;6779;0;0;0;0;8;0;6729;0;0;0;0;9;0;3620;0;0;0;0
01.11.21;20:25:00;1;416;8212;0;2;0;4893;0;0;0;0;3;0;3158;0;0;0;0;4;0;4424;0;0;0;0;5;0;13477;2;0;0;0;0;0;6;0;10133;2;0;0;0;0;0;7;0;6779;0;0;0;0;8;0;6729;0;0;0;0;9;0;3620;0;0;0;0
01.11.21;20:20:00;1;493;8175;0;2;0;4893;0;0;0;0;3;0;3158;0;0;0;0;4;0;4424;0;0;0;0;5;0;13477;2;0;0;0;0;0;6;0;10133;2;0;0;0;0;0;7;0;6779;0;0;0;0;8;0;6729;0;0;0;0;9;0;3620;0;0;0;0
01.11.21;20:15:00;1;950;8133;0;2;0;4893;0;0;0;0;3;0;3158;0;0;0;0;4;0;4424;0;0;0;0;5;0;13477;2;0;0;0;0;0;6;0;10133;2;0;0;0;0;0;7;0;6779;0;0;0;0;8;0;6729;0;0;0;0;9;0;3620;0;0;0;0
01.11.21;20:10:00;1;398;8049;0;2;0;4893;0;0;0;0;3;0;3158;0;0;0;0;4;0;4424;0;0;0;0;5;0;13477;2;0;0;0;0;0;6;0;10133;2;0;0;0;0;0;7;0;6779;0;0;0;0;8;0;6729;0;0;0;0;9;0;3620;0;0;0;0
01.11.21;20:05:00;1;272;8017;0;2;0;4893;0;0;0;0;3;0;3158;0;0;0;0;4;0;4424;0;0;0;0;5;0;13477;2;0;0;0;0;0;6;0;10133;2;0;0;0;0;0;7;0;6779;0;0;0;0;8;0;6729;0;0;0;0;9;0;3620;0;0;0;0
01.11.21;20:00:00;1;273;7994;0;2;0;4893;0;0;0;0;3;0;3158;0;0;0;0;4;0;4424;0;0;0;0;5;0;13477;2;0;0;0;0;0;6;0;10133;2;0;0;0;0;0;7;0;6779;0;0;0;0;8;0;6729;0;0;0;0;9;0;3620;0;0;0;0
01.11.21;19:55:00;1;298;7971;0;2;0;4893;0;0;0;0;3;0;3158;0;0;0;0;4;0;4424;0;0;0;0;5;0;13477;2;0;0;0;0;0;6;0;10133;2;0;0;0;0;0;7;0;6779;0;0;0;0;8;0;6729;0;0;0;0;9;0;3620;0;0;0;0
01.11.21;19:50:00;1;348;7946;0;2;0;4893;0;0;0;0;3;0;3158;0;0;0;0;4;0;4424;0;0;0;0;5;0;13477;2;0;0;0;0;0;6;0;10133;2;0;0;0;0;0;7;0;6779;0;0;0;0;8;0;6729;0;0;0;0;9;0;3620;0;0;0;0
01.11.21;19:45:00;1;358;7917;0;2;0;4893;0;0;0;0;3;0;3158;0;0;0;0;4;0;4424;0;0;0;0;5;0;13477;2;0;0;0;0;0;6;0;10133;2;0;0;0;0;0;7;0;6779;0;0;0;0;8;0;6729;0;0;0;0;9;0;3620;0;0;0;0
01.11.21;19:40:00;1;351;7887;0;2;0;4893;0;0;0;0;3;0;3158;0;0;0;0;4;0;4424;0;0;0;0;5;0;13477;2;0;0;0;0;0;6;0;10133;2;0;0;0;0;0;7;0;6779;0;0;0;0;8;0;6729;0;0;0;0;9;0;3620;0;0;0;0
01.11.21;19:35:00;1;355;7857;0;2;0;4893;0;0;0;0;3;0;3158;0;0;0;0;4;0;4424;0;0;0;0;5;0;13477;2;0;0;0;0;0;6;0;10133;2;0;0;0;0;0;7;0;6779;0;0;0;0;8;0;6729;0;0;0;0;9;0;3620;0;0;0;0
01.11.21;19:30:00;1;334;7827;0;2;0;4893;0;0;0;0;3;0;3158;0;0;0;0;4;0;4424;0;0;0;0;5;0;13477;2;0;0;0;0;0;6;0;10133;2;0;0;0;0;0;7;0;6779;0;0;0;0;8;0;6729;0;0;0;0;9;0;3620;0;0;0;0
01.11.21;19:25:00;1;370;7798;0;2;0;4893;0;0;0;0;3;0;3158;0;0;0;0;4;0;4424;0;0;0;0;5;0;13477;2;0;0;0;0;0;6;0;10133;2;0;0;0;0;0;7;0;6779;0;0;0;0;8;0;6729;0;0;0;0;9;0;3620;0;0;0;0
01.11.21;19:20:00;1;314;7768;0;2;0;4893;0;0;0;0;3;0;3158;0;0;0;0;4;0;4424;0;0;0;0;5;0;13477;2;0;0;0;0;0;6;0;10133;2;0;0;0;0;0;7;0;6779;0;0;0;0;8;0;6729;0;0;0;0;9;0;3620;0;0;0;0
01.11.21;19:15:00;1;272;7741;0;2;0;4893;0;0;0;0;3;0;3158;0;0;0;0;4;0;4424;0;0;0;0;5;0;13477;2;0;0;0;0;0;6;0;10133;2;0;0;0;0;0;7;0;6779;0;0;0;0;8;0;6729;0;0;0;0;9;0;3620;0;0;0;0
01.11.21;19:10:00;1;357;7718;0;2;0;4893;0;0;0;0;3;0;3158;0;0;0;0;4;0;4424;0;0;0;0;5;0;13477;2;0;0;0;0;0;6;0;10133;2;0;0;0;0;0;7;0;6779;0;0;0;0;8;0;6729;0;0;0;0;9;0;3620;0;0;0;0
01.11.21;19:05:00;1;396;7688;0;2;0;4893;0;0;0;0;3;0;3158;0;0;0;0;4;0;4424;0;0;0;0;5;0;13477;2;0;0;0;0;0;6;0;10133;2;0;0;0;0;0;7;0;6779;0;0;0;0;8;0;6729;0;0;0;0;9;0;3620;0;0;0;0
01.11.21;19:00:00;1;410;7655;0;2;0;4893;0;0;0;0;3;0;3158;0;0;0;0;4;0;4424;0;0;0;0;5;0;13477;2;0;0;0;0;0;6;0;10133;2;0;0;0;0;0;7;0;6779;0;0;0;0;8;0;6729;0;0;0;0;9;0;3620;0;0;0;0
01.11.21;18:55:00;1;332;7622;0;2;0;4893;0;0;0;0;3;0;3158;0;0;0;0;4;0;4424;0;0;0;0;5;0;13477;2;0;0;0;0;0;6;0;10133;2;0;0;0;0;0;7;0;6779;0;0;0;0;8;0;6729;0;0;0;0;9;0;3620;0;0;0;0
01.11.21;18:50:00;1;346;7595;0;2;0;4893;0;0;0;0;3;0;3158;0;0;0;0;4;0;4424;0;0;0;0;5;0;13477;2;0;0;0;0;0;6;0;10133;2;0;0;0;0;0;7;0;6779;0;0;0;0;8;0;6729;0;0;0;0;9;0;3620;0;0;0;0
01.11.21;18:45:00;1;359;7566;0;2;0;4893;0;0;0;0;3;0;3158;0;0;0;0;4;0;4424;0;0;0;0;5;0;13477;2;0;0;0;0;0;6;0;10133;2;0;0;0;0;0;7;0;6779;0;0;0;0;8;0;6729;0;0;0;0;9;0;3620;0;0;0;0
01.11.21;18:40:00;1;361;7536;0;2;0;4893;0;0;0;0;3;0;3158;0;0;0;0;4;0;4424;0;0;0;0;5;0;13477;2;0;0;0;0;0;6;0;10133;2;0;0;0;0;0;7;0;6779;0;0;0;0;8;0;6729;0;0;0;0;9;0;3620;0;0;0;0
01.11.21;18:35:00;1;362;7506;0;2;0;4893;0;0;0;0;3;0;3158;0;0;0;0;4;0;4424;0;0;0;0;5;0;13477;2;0;0;0;0;0;6;0;10133;2;0;0;0;0;0;7;0;6779;0;0;0;0;8;0;6729;0;0;0;0;9;0;3620;0;0;0;0
01.11.21;18:30:00;1;396;7475;0;2;0;4893;0;0;0;0;3;0;3158;0;0;0;0;4;0;4424;0;0;0;0;5;0;13477;2;0;0;0;0;0;6;0;10133;2;0;0;0;0;0;7;0;6779;0;0;0;0;8;0;6729;0;0;0;0;9;0;3620;0;0;0;0
01.11.21;18:25:00;1;357;7442;0;2;0;4893;0;0;0;0;3;0;3158;0;0;0;0;4;0;4424;0;0;0;0;5;0;13477;2;0;0;0;0;0;6;0;10133;2;0;0;0;0;0;7;0;6779;0;0;0;0;8;0;6729;0;0;0;0;9;0;3620;0;0;0;0
01.11.21;18:20:00;1;355;7413;0;2;0;4893;0;0;0;0;3;0;3158;0;0;0;0;4;0;4424;0;0;0;0;5;0;13477;2;0;0;0;0;0;6;0;10133;2;0;0;0;0;0;7;0;6779;0;0;0;0;8;0;6729;0;0;0;0;9;0;3620;0;0;0;0
01.11.21;18:15:00;1;347;7384;0;2;0;4893;0;0;0;0;3;0;3158;0;0;0;0;4;0;4424;0;0;0;0;5;0;13477;2;0;0;0;0;0;6;0;10133;2;0;0;0;0;0;7;0;6779;0;0;0;0;8;0;6729;0;0;0;0;9;0;3620;0;0;0;0
01.11.21;18:10:00;1;318;7355;0;2;0;4893;0;0;0;0;3;0;3158;0;0;0;0;4;0;4424;0;0;0;0;5;0;13477;2;0;0;0;0;0;6;0;10133;2;0;0;0;0;0;7;0;6779;0;0;0;0;8;0;6729;0;0;0;0;9;0;3620;0;0;0;0
01.11.21;18:05:00;1;369;7329;0;2;0;4893;0;0;0;0;3;0;3158;0;0;0;0;4;0;4424;0;0;0;0;5;0;13477;2;0;0;0;0;0;6;0;10133;2;0;0;0;0;0;7;0;6779;0;0;0;0;8;0;6729;0;0;0;0;9;0;3620;0;0;0;0
01.11.21;18:00:00;1;364;7297;0;2;0;4893;0;0;0;0;3;0;3158;0;0;0;0;4;0;4424;0;0;0;0;5;0;13477;2;0;0;0;0;0;6;0;10133;2;0;0;0;0;0;7;0;6779;0;0;0;0;8;0;6729;0;0;0;0;9;0;3620;0;0;0;0
01.11.21;17:55:00;1;352;7267;0;2;0;4893;0;0;0;0;3;0;3158;0;0;0;0;4;0;4424;0;0;0;0;5;0;13477;2;0;0;0;0;0;6;0;10133;2;0;0;0;0;0;7;0;6779;0;0;0;0;8;0;6729;0;0;0;0;9;0;3620;0;0;0;0
01.11.21;17:50:00;1;312;7239;0;2;0;4893;0;0;0;0;3;0;3158;0;0;0;0;4;0;4424;0;0;0;0;5;0;13477;2;0;0;0;0;0;6;0;10133;2;0;0;0;0;0;7;0;6779;0;0;0;0;8;0;6729;0;0;0;0;9;0;3620;0;0;0;0
01.11.21;17:45:00;1;316;7199;0;2;0;4893;0;0;0;0;3;0;3158;0;0;0;0;4;0;4424;0;0;0;0;5;0;13477;2;0;0;0;0;0;6;0;10133;2;0;0;0;0;0;7;0;6779;0;0;0;0;8;0;6729;0;0;0;0;9;0;3620;0;0;0;0
01.11.21;17:40:00;1;345;7172;0;2;0;4893;0;0;0;0;3;0;3158;0;0;0;0;4;0;4424;0;0;0;0;5;0;13477;2;0;0;0;0;0;6;0;10133;2;0;0;0;0;0;7;0;6779;0;0;0;0;8;0;6729;0;0;0;0;9;0;3620;0;0;0;0
01.11.21;17:35:00;1;350;7143;0;2;0;4893;0;0;0;0;3;0;3158;0;0;0;0;4;0;4424;0;0;0;0;5;0;13477;2;0;0;0;0;0;6;0;10133;2;0;0;0;0;0;7;0;6779;0;0;0;0;8;0;6729;0;0;0;0;9;0;3620;0;0;0;0
01.11.21;17:30:00;1;314;7115;0;2;0;4893;0;0;0;0;3;0;3158;0;0;0;0;4;0;4424;0;0;0;0;5;0;13477;2;0;0;0;0;0;6;0;10133;2;0;0;0;0;0;7;0;6779;0;0;0;0;8;0;6729;0;0;0;0;9;0;3620;0;0;0;0
01.11.21;17:25:00;1;315;7089;0;2;0;4893;0;0;0;0;3;0;3158;0;0;0;0;4;0;4424;0;0;0;0;5;0;13477;2;0;0;0;0;0;6;0;10133;2;0;0;0;0;0;7;0;6779;0;0;0;0;8;0;6729;0;0;0;0;9;0;3620;0;0;0;0
01.11.21;17:20:00;1;291;7063;0;2;0;4893;0;0;0;0;3;0;3158;0;0;0;0;4;0;4424;0;0;0;0;5;0;13477;2;0;0;0;0;0;6;0;10133;2;0;0;0;0;0;7;0;6779;0;0;0;0;8;0;6729;0;0;0;0;9;0;3620;0;0;0;0
01.11.21;17:15:00;1;321;7037;0;2;0;4893;0;0;0;0;3;0;3158;0;0;0;0;4;0;4424;0;0;0;0;5;0;13477;2;0;0;0;0;0;6;0;10133;2;0;0;0;0;0;7;0;6779;0;0;0;0;8;0;6729;0;0;0;0;9;0;3620;0;0;0;0
01.11.21;17:10:00;1;323;7010;0;2;0;4893;0;0;0;0;3;0;3158;0;0;0;0;4;0;4424;0;0;0;0;5;0;13477;2;0;0;0;0;0;6;0;10133;2;0;0;0;0;0;7;0;6779;0;0;0;0;8;0;6729;0;0;0;0;9;0;3620;0;0;0;0
01.11.21;17:05:00;1;304;6983;0;2;0;4893;0;0;0;0;3;0;3158;0;0;0;0;4;0;4424;0;0;0;0;5;0;13477;2;0;0;0;0;0;6;0;10133;2;0;0;0;0;0;7;0;6779;0;0;0;0;8;0;6729;0;0;0;0;9;0;3620;0;0;0;0
01.11.21;17:00:00;1;366;6957;0;2;0;4893;0;0;0;0;3;0;3158;0;0;0;0;4;0;4424;0;0;0;0;5;0;13477;2;0;0;0;0;0;6;0;10133;2;0;0;0;0;0;7;0;6779;0;0;0;0;8;0;6729;0;0;0;0;9;0;3620;0;0;0;0
01.11.21;16:55:00;1;367;6926;0;2;0;4893;0;0;0;0;3;0;3158;0;0;224;14;4;0;4424;0;0;0;0;5;0;13477;2;0;0;0;0;0;6;0;10133;2;0;0;0;0;0;7;0;6779;0;0;0;0;8;0;6729;0;0;0;0;9;0;3620;0;0;0;0
01.11.21;16:50:00;1;355;6895;0;2;0;4893;6;0;272;14;3;0;3158;6;0;304;17;4;0;4424;0;0;0;0;5;0;13477;2;0;0;0;0;0;6;0;10133;2;0;0;0;0;0;7;0;6779;0;0;0;0;8;0;6729;0;0;0;0;9;0;3620;0;0;0;0
01.11.21;16:45:00;1;319;6865;0;2;0;4893;6;0;290;14;3;0;3158;6;0;329;17;4;0;4424;2;0;79;15;5;0;13477;2;0;0;14;13;4;6;0;10133;2;0;0;0;0;0;7;0;6779;0;0;0;0;8;0;6729;0;0;0;0;9;0;3620;0;0;0;0
01.11.21;16:40:00;1;343;6839;0;2;0;4893;6;0;328;14;3;0;3158;6;0;409;17;4;0;4424;1;0;123;15;5;0;13477;1;0;1;284;282;27;6;0;10133;2;137;131;223;217;17;7;0;6779;0;0;177;12;8;0;6729;0;0;180;12;9;0;3620;2;0;277;14
01.11.21;16:35:00;1;326;6809;0;2;0;4893;6;0;347;14;3;0;3158;6;2;423;18;4;0;4424;1;0;152;16;5;0;13477;23;0;0;377;391;27;6;0;10133;23;0;0;480;476;26;7;0;6779;6;0;305;18;8;0;6729;6;0;311;18;9;0;3620;6;0;325;14
01.11.21;16:30:00;1;382;6783;0;2;0;4893;6;0;359;14;3;0;3158;4;1;431;18;4;0;4424;1;0;171;16;5;0;13477;26;0;1;395;508;28;6;0;10133;23;0;0;522;514;26;7;0;6779;6;0;335;18;8;0;6729;6;0;341;18;9;0;3620;6;0;360;14
01.11.21;16:25:00;1;344;6752;0;2;0;4893;6;0;375;14;3;3;3158;3;6;431;18;4;0;4424;1;0;199;16;5;10;13477;26;0;1;397;607;28;6;0;10133;23;0;0;553;545;26;7;0;6779;6;0;381;19;8;0;6729;6;0;387;18;9;0;3620;6;0;402;14
01.11.21;16:20:00;1;347;6723;0;2;0;4893;6;0;386;15;3;1;3157;6;3;477;18;4;0;4424;1;0;218;16;5;10;13476;26;1;3;407;647;28;6;4;10133;4;0;0;572;556;26;7;0;6779;6;1;411;19;8;0;6729;4;1;406;18;9;0;3620;6;1;432;14
01.11.21;16:15:00;1;347;6694;0;2;0;4893;6;0;389;15;3;1;3157;6;3;477;18;4;0;4424;3;0;182;17;5;11;13475;26;0;2;405;641;28;6;9;10132;4;0;0;563;548;26;7;1;6779;6;2;423;19;8;1;6729;6;2;425;18;9;1;3620;6;2;462;14
01.11.21;16:10:00;1;339;6666;0;2;0;4893;6;0;380;15;3;0;3157;6;3;469;18;4;0;4424;1;0;210;17;5;8;13474;26;0;1;403;636;29;6;6;10132;4;0;0;548;538;27;7;0;6779;6;2;401;19;8;0;6728;6;1;416;18;9;0;3620;4;1;431;14
01.11.21;16:05:00;1;395;6637;0;2;0;4893;6;0;384;15;3;1;3157;6;3;470;18;4;0;4424;1;0;215;17;5;0;13474;26;0;0;417;660;29;6;7;10131;4;0;0;549;539;27;7;0;6779;6;0;411;19;8;0;6728;6;0;415;18;9;0;3620;6;1;429;14
01.11.21;16:00:00;1;379;6604;0;2;0;4893;6;0;399;15;3;1;3157;6;4;493;18;4;0;4424;3;0;199;18;5;84;13472;4;12;23;372;592;30;6;55;10131;1;0;12;522;503;28;7;3;6779;3;5;423;19;8;1;6728;3;5;426;19;9;1;3620;6;2;475;15
01.11.21;15:55:00;1;519;6571;0;2;0;4893;6;0;404;15;3;2;3157;3;6;496;18;4;0;4424;3;0;200;18;5;94;13465;4;16;27;373;592;30;6;73;10126;4;0;19;509;491;28;7;0;6778;6;4;446;19;8;1;6728;6;4;449;19;9;5;3620;6;7;461;15
01.11.21;15:50:00;1;569;6527;0;2;0;4893;6;0;409;15;3;1;3156;6;6;507;18;4;0;4424;3;0;200;18;5;110;13457;4;30;34;373;592;30;6;82;10120;4;0;24;509;491;28;7;0;6778;6;4;455;19;8;0;6728;6;4;457;19;9;0;3619;6;3;501;15
01.11.21;15:45:00;1;572;6479;0;2;24;4893;6;41;384;16;3;4;3156;6;9;512;18;4;12;4424;3;12;200;18;5;141;13448;4;45;48;373;592;30;6;105;10113;4;8;36;509;491;28;7;3;6778;6;8;464;19;8;2;6728;6;8;465;19;9;1;3619;6;5;514;15
01.11.21;15:40:00;1;524;6431;0;2;59;4891;4;85;359;16;3;4;3156;6;10;523;19;4;26;4423;3;27;200;18;5;178;13435;4;66;68;373;592;30;6;135;10104;4;21;51;509;491;28;7;33;6778;6;56;378;20;8;25;6728;6;47;404;19;9;5;3619;4;12;502;15
01.11.21;15:35:00;1;514;6388;0;2;12;4886;4;16;404;16;3;4;3156;6;11;515;19;4;13;4421;3;14;200;18;5;152;13420;4;49;51;373;592;30;6;114;10092;4;13;38;509;491;28;7;1;6775;6;8;473;20;8;12;6726;3;22;448;19;9;6;3619;3;13;491;15
01.11.21;15:30:00;1;559;6345;0;2;0;4885;6;0;412;16;3;1;3155;6;6;512;19;4;0;4420;3;0;200;18;5;118;13408;4;37;37;373;592;30;6;91;10083;4;2;28;509;491;28;7;4;6775;6;10;441;20;8;1;6724;6;6;464;19;9;0;3618;6;3;509;15
01.11.21;15:25:00;1;570;6298;0;2;0;4885;6;0;413;16;3;3;3155;3;8;508;19;4;7;4420;3;7;200;18;5;125;13398;4;40;43;373;592;30;6;96;10076;4;2;31;509;491;28;7;5;6775;6;17;436;20;8;0;6724;6;8;463;19;9;0;3618;6;5;509;15
01.11.21;15:20:00;1;568;6250;0;2;0;4885;6;0;409;16;3;1;3155;6;6;506;19;4;0;4419;3;0;221;18;5;111;13388;4;29;34;373;592;30;6;84;10068;4;1;25;509;491;28;7;2;6775;6;4;458;20;8;2;6724;6;4;460;20;9;2;3618;6;3;506;16
01.11.21;15:15:00;1;521;6203;0;2;0;4885;6;0;407;16;3;1;3155;6;6;500;19;4;0;4419;3;0;208;18;5;108;13379;4;29;30;373;592;30;6;82;10061;4;2;24;509;491;28;7;2;6774;6;5;452;20;8;0;6724;6;5;454;20;9;2;3618;6;3;499;16
01.11.21;15:10:00;1;533;6159;0;2;0;4885;6;0;400;17;3;2;3155;6;10;472;19;4;0;4419;3;0;224;18;5;94;13370;4;17;26;372;592;30;6;22;10054;4;0;5;577;556;27;7;3;6774;4;6;427;21;8;0;6724;6;0;467;20;9;2;3618;4;3;474;16
01.11.21;15:05:00;1;506;6115;0;2;0;4885;6;0;399;17;3;2;3154;6;5;486;19;4;0;4419;3;0;199;19;5;92;13362;4;17;24;373;592;30;6;58;10052;1;0;13;534;516;28;7;0;6774;3;3;440;21;8;1;6724;3;2;443;20;9;4;3617;3;6;453;16
01.11.21;15:00:00;1;504;6072;0;2;7;4885;6;11;399;17;3;1;3154;6;5;509;20;4;1;4419;3;1;199;19;5;133;13354;4;40;43;373;592;30;6;99;10047;4;2;32;519;502;28;7;2;6774;6;7;457;21;8;2;6724;6;7;461;21;9;1;3617;6;4;508;16
01.11.21;14:55:00;1;543;6030;0;2;53;4884;4;81;360;18;3;5;3154;4;9;517;20;4;22;4419;3;23;198;19;5;178;13343;4;68;65;373;592;30;6;134;10038;4;24;51;519;502;28;7;17;6774;6;26;436;21;8;14;6724;6;28;442;21;9;4;3617;6;8;521;16
01.11.21;14:50:00;1;528;5985;0;2;89;4880;4;120;363;18;3;19;3154;6;31;528;20;4;52;4417;3;55;198;19;5;257;13327;4;110;101;373;592;30;6;191;10027;4;49;78;519;501;28;7;63;6772;4;96;415;21;8;62;6722;4;97;422;21;9;5;3617;6;8;539;17
01.11.21;14:45:00;1;535;5941;0;2;144;4873;4;173;360;18;3;82;3152;4;118;482;21;4;101;4413;3;105;213;19;5;340;13306;4;159;142;373;592;30;6;251;10011;4;85;112;519;502;28;7;129;6767;4;160;451;21;8;122;6717;4;156;447;21;9;59;3616;6;78;482;17
01.11.21;14:40:00;1;540;5896;0;2;134;4861;4;163;363;18;3;71;3145;4;109;500;21;4;90;4405;5;94;203;19;5;315;13277;4;147;123;373;592;30;6;236;9989;4;77;100;519;502;28;7;129;6756;4;155;443;21;8;107;6707;4;147;467;21;9;56;3612;4;76;463;17
01.11.21;14:35:00;1;539;5851;0;2;121;4849;4;152;361;18;3;68;3139;4;106;465;20;4;82;4397;3;85;199;19;5;303;13251;4;139;118;373;592;30;6;228;9970;4;68;101;519;501;28;7;100;6745;4;133;469;21;8;94;6698;4;128;471;21;9;12;3607;6;16;546;17
01.11.21;14:30:00;1;555;5806;0;2;90;4839;4;120;364;19;3;21;3134;6;34;454;21;4;45;4390;3;46;197;19;5;240;13226;4;102;97;373;592;30;6;181;9951;4;44;74;519;502;28;7;70;6737;4;105;430;22;8;72;6690;4;107;433;21;9;12;3606;6;20;513;17
01.11.21;14:25:00;1;545;5760;0;2;95;4832;4;126;353;19;3;53;3132;4;83;421;21;4;55;4386;3;57;197;19;5;244;13206;4;104;99;373;592;30;6;186;9936;4;45;76;519;501;28;7;77;6731;4;107;416;22;8;73;6684;4;104;426;21;9;7;3605;6;13;534;17
01.11.21;14:20:00;1;585;5715;0;2;108;4824;4;138;359;19;3;60;3128;4;96;452;21;4;67;4382;3;69;198;19;5;280;13186;4;124;116;373;592;30;6;206;9921;4;60;89;519;502;28;7;93;6724;4;122;404;22;8;83;6678;4;124;416;21;9;6;3605;6;11;544;18
01.11.21;14:15:00;1;599;5665;0;2;180;4815;4;212;368;19;3;108;3123;4;143;480;21;4;138;4376;5;143;219;20;5;424;13162;4;205;179;385;596;30;6;311;9903;4;116;136;519;502;29;7;150;6717;4;185;393;22;8;155;6671;4;193;423;21;9;82;3604;4;110;462;18
01.11.21;14:10:00;1;586;5616;0;2;252;4800;4;287;372;19;3;155;3114;4;194;489;22;4;212;4365;5;220;225;20;5;582;13125;4;285;249;398;601;30;6;428;9876;4;170;201;530;534;29;7;239;6704;4;276;450;22;8;241;6658;4;276;463;21;9;107;3597;4;133;418;15
01.11.21;14:05:00;1;618;5567;0;2;371;4779;4;411;384;20;3;232;3101;4;273;494;22;4;319;4347;5;332;230;20;5;870;13075;4;438;370;409;641;31;6;638;9840;4;269;299;556;552;29;7;377;6684;4;416;467;22;8;373;6638;4;417;466;21;9;200;3587;4;233;501;19
01.11.21;14:00:00;1;554;5516;0;2;502;4748;4;546;392;20;3;317;3081;4;363;498;22;4;444;4321;5;462;236;20;5;1125;12999;4;576;481;415;673;31;6;844;9784;4;357;392;593;561;29;7;553;6652;4;594;476;22;8;552;6607;4;598;470;21;9;297;3570;4;337;521;19
01.11.21;13:55:00;1;508;5470;0;2;385;4706;4;424;385;20;3;245;3055;4;287;494;22;4;330;4284;5;343;235;20;5;830;12905;4;419;354;407;637;31;6;613;9714;4;252;292;538;543;29;7;435;6606;4;474;459;22;8;442;6561;4;480;457;22;9;236;3545;4;270;489;19
01.11.21;13:50:00;1;504;5428;0;2;276;4674;4;312;377;20;3;172;3034;4;213;498;22;4;231;4256;5;240;225;20;5;609;12838;4;299;258;402;631;31;6;435;9665;4;175;204;519;510;29;7;303;6570;4;337;463;22;8;302;6524;4;341;467;22;9;163;3526;4;194;509;19
01.11.21;13:45:00;1;540;5386;0;2;236;4651;4;274;374;20;3;146;3020;4;185;495;22;4;191;4237;5;199;226;20;5;523;12788;4;255;222;397;616;31;6;377;9629;4;150;172;519;504;29;7;255;6545;4;282;440;22;8;244;6499;4;282;458;22;9;129;3512;4;160;501;19